This is the latest recevied weather packets stored in our database for station/object K4ZZR. If no packets are shown the sender has not sent any weather packets the latest 10 day(s).
| Time | Temp. | Humidity | Pressure | Rain* | Wind** | Luminosity | Snow |
|---|---|---|---|---|---|---|---|
| 1778110651 | 26.67° C | 69% | 1015.5 hPa | 0 mm | - | 21 W/m² | - |
| 1778110347 | 26.67° C | 68% | 1015.7 hPa | 0 mm | - | 28 W/m² | - |
| 1778110044 | 26.67° C | 67% | 1015.8 hPa | 0 mm | - | 35 W/m² | - |
| 1778109738 | 27.22° C | 69% | 1015.8 hPa | 0 mm | - | 45 W/m² | - |
| 1778109436 | 27.22° C | 68% | 1015.8 hPa | 0 mm | - | 59 W/m² | - |
| 1778109135 | 27.22° C | 67% | 1015.8 hPa | 0 mm | - | 68 W/m² | - |
| 1778108831 | 27.22° C | 68% | 1015.8 hPa | 0 mm | - | 76 W/m² | - |
| 1778108528 | 27.22° C | 66% | 1016 hPa | 0 mm | - | 84 W/m² | - |
| 1778108224 | 27.22° C | 66% | 1016 hPa | 0 mm | - | 91 W/m² | - |
| 1778107921 | 27.22° C | 67% | 1015.8 hPa | 0 mm | - | 105 W/m² | - |
| 1778107618 | 27.22° C | 66% | 1016 hPa | 0 mm | - | 109 W/m² | - |
| 1778107315 | 27.78° C | 66% | 1015.7 hPa | 0 mm | - | 115 W/m² | - |
| 1778107011 | 27.78° C | 66% | 1015.8 hPa | 0 mm | - | 136 W/m² | - |
| 1778106707 | 27.78° C | 65% | 1015.9 hPa | 0 mm | - | 154 W/m² | - |
| 1778106404 | 27.78° C | 66% | 1015.9 hPa | 0 mm | - | 162 W/m² | - |
| 1778106100 | 27.78° C | 66% | 1015.6 hPa | 0 mm | - | 184 W/m² | - |
| 1778105798 | 27.78° C | 66% | 1015.7 hPa | 0 mm | - | 211 W/m² | - |
| 1778105496 | 27.78° C | 67% | 1015.6 hPa | 0 mm | - | 212 W/m² | - |
| 1778105192 | 27.78° C | 66% | 1015.6 hPa | 0 mm | - | 232 W/m² | - |
| 1778104887 | 27.78° C | 66% | 1015.9 hPa | 0 mm | - | 248 W/m² | - |
| 1778104584 | 27.78° C | 66% | 1015.7 hPa | 0 mm | - | 274 W/m² | - |
| 1778104280 | 28.33° C | 64% | 1015.8 hPa | 0 mm | - | 314 W/m² | - |
| 1778103977 | 28.33° C | 65% | 1015.7 hPa | 0 mm | - | 309 W/m² | - |
| 1778103674 | 28.33° C | 64% | 1015.4 hPa | 0 mm | - | 325 W/m² | - |
| 1778103372 | 28.33° C | 66% | 1015.6 hPa | 0 mm | - | 332 W/m² | - |
* Rain latest hour (hover to see other rain measurements)
** Current wind speed in m/s (hover to see current wind gust speed)